TimePDT,TemperatureF,Dew PointF,Humidity,Sea Level PressureIn,VisibilityMPH,Wind Direction,Wind SpeedMPH,Gust SpeedMPH,PrecipitationIn,Events,Conditions,WindDirDegrees,DateUTC
12:56 AM,54.9,52.0,90,29.88,10.0,North,-9999.0,-,N/A,,Clear,0,2012-10-16 07:56:00
1:56 AM,52.9,50.9,93,29.88,10.0,North,-9999.0,-,N/A,,Clear,0,2012-10-16 08:56:00
5:56 AM,48.9,48.9,100,29.85,10.0,North,-9999.0,-,N/A,,Clear,0,2012-10-16 12:56:00
6:56 AM,48.9,48.9,100,29.85,10.0,North,-9999.0,-,N/A,,Clear,0,2012-10-16 13:56:00
7:56 AM,54.9,52.0,90,29.86,10.0,North,-9999.0,-,N/A,,Clear,0,2012-10-16 14:56:00
9:56 AM,72.0,48.9,44,29.87,10.0,North,-9999.0,-,N/A,,Clear,0,2012-10-16 16:56:00
10:56 AM,77.9,50.9,39,29.85,10.0,North,-9999.0,-,N/A,,Clear,0,2012-10-16 17:56:00
11:56 AM,84.9,50.0,30,29.82,10.0,North,-9999.0,-,N/A,,Clear,0,2012-10-16 18:56:00
12:56 PM,90.9,41.0,18,29.79,10.0,North,-9999.0,-,N/A,,Clear,0,2012-10-16 19:56:00
1:56 PM,92.8,45.9,20,29.74,10.0,North,-9999.0,-,0.05,,Clear,0,2012-10-16 20:56:00
2:56 PM,93.9,45.0,18,29.72,10.0,North,-9999.0,-,0.01,,Clear,0,2012-10-16 21:56:00
3:56 PM,91.9,47.8,22,29.71,10.0,North,-9999.0,-,0.02,,Clear,0,2012-10-16 22:56:00
4:56 PM,88.9,52.9,29,29.71,10.0,North,-9999.0,-,N/A,,Clear,0,2012-10-16 23:56:00
5:56 PM,81.9,55.9,41,29.73,10.0,North,-9999.0,-,0.01,,Clear,0,2012-10-17 00:56:00
6:56 PM,81.0,52.0,36,29.74,10.0,North,-9999.0,-,N/A,,Clear,0,2012-10-17 01:56:00
7:56 PM,75.9,54.0,46,29.76,10.0,North,-9999.0,-,N/A,,Clear,0,2012-10-17 02:56:00
8:56 PM,68.9,52.9,57,29.77,10.0,North,-9999.0,-,0.01,,Clear,0,2012-10-17 03:56:00
9:56 PM,63.0,52.9,70,29.77,10.0,North,-9999.0,-,N/A,,Clear,0,2012-10-17 04:56:00
10:56 PM,61.0,54.0,78,29.76,10.0,North,-9999.0,-,N/A,,Clear,0,2012-10-17 05:56:00
11:56 PM,56.8,54.0,90,29.76,10.0,North,-9999.0,-,N/A,,Clear,0,2012-10-17 06:56:00